• In Hungary
  • List of Countries
  • For 7 days
  • Water Temperature
  • Satellite Maps
  • Weather Map
  • News
  • Weather Widgets
  • user-avatar
    Login

    Hourly Weather Alborg

    Today, 21 September, Friday

    Time Temperature Precipitation Wind Pressure Humidity
    00:00 +15°C° 0.4 mm 8 mps 751 mmHg 89%
    01:00 +16°C° 0.4 mm 10 mps 751 mmHg 87%
    02:00 +16°C° 0.1 mm 9 mps 750 mmHg 86%
    03:00 +16°C° 0.1 mm 9 mps 749 mmHg 86%
    04:00 +16°C° 0.1 mm 9 mps 748 mmHg 86%
    05:00 +16°C° 0.1 mm 9 mps 747 mmHg 85%
    06:00 +16°C° 0.1 mm 9 mps 746 mmHg 84%
    07:00 +16°C° 0.1 mm 9 mps 745 mmHg 83%
    08:00 +16°C° 0.5 mm 10 mps 744 mmHg 83%
    09:00 +16°C° 0.5 mm 11 mps 743 mmHg 82%
    10:00 +17°C° 0.5 mm 12 mps 742 mmHg 81%
    11:00 +15°C° 0.8 mm 13 mps 742 mmHg 75%
    12:00 +14°C° 0.8 mm 14 mps 741 mmHg 70%
    13:00 +14°C° 0.8 mm 15 mps 741 mmHg 65%
    14:00 +13°C° 0.1 mm 16 mps 741 mmHg 64%
    15:00 +13°C° 0.1 mm 16 mps 741 mmHg 62%
    16:00 +11°C° 0.1 mm 17 mps 741 mmHg 61%
    17:00 +11°C° 0.2 mm 16 mps 742 mmHg 66%
    18:00 +10°C° 0.2 mm 15 mps 742 mmHg 70%
    19:00 +9°C° 0.2 mm 15 mps 742 mmHg 75%
    20:00 +9°C° 0.3 mm 14 mps 743 mmHg 74%
    21:00 +9°C° 0.3 mm 13 mps 744 mmHg 73%
    22:00 +9°C° 0.3 mm 12 mps 745 mmHg 72%
    23:00 +9°C° 0.1 mm 12 mps 746 mmHg 70%

    Tomorrow, 22 September, Saturday

    Time Temperature Precipitation Wind Pressure Humidity
    00:00 +9°C° 0.1 mm 12 mps 747 mmHg 69%
    01:00 +9°C° 0.1 mm 12 mps 748 mmHg 67%
    02:00 +9°C° 0.1 mm 12 mps 749 mmHg 67%
    03:00 +9°C° 0.1 mm 12 mps 749 mmHg 67%
    04:00 +9°C° 0.1 mm 12 mps 750 mmHg 67%
    05:00 +9°C° 0.1 mm 11 mps 750 mmHg 69%
    06:00 +8°C° 0.1 mm 11 mps 751 mmHg 71%
    07:00 +8°C° 0.1 mm 11 mps 751 mmHg 72%
    08:00 +9°C° 0.1 mm 11 mps 751 mmHg 69%
    09:00 +11°C° 0.1 mm 11 mps 752 mmHg 66%
    10:00 +12°C° 0.1 mm 11 mps 752 mmHg 62%
    11:00 +12°C° 0.1 mm 11 mps 752 mmHg 60%
    12:00 +12°C° 0.1 mm 11 mps 752 mmHg 59%
    13:00 +13°C° 0.1 mm 11 mps 752 mmHg 57%
    14:00 +12°C° 0.1 mm 11 mps 753 mmHg 60%
    15:00 +12°C° 0.1 mm 10 mps 753 mmHg 63%
    16:00 +12°C° 0.1 mm 10 mps 753 mmHg 67%
    17:00 +11°C° 0.1 mm 10 mps 753 mmHg 67%
    18:00 +11°C° 0.1 mm 10 mps 754 mmHg 68%
    19:00 +9°C° 0.1 mm 10 mps 754 mmHg 69%
    20:00 +9°C° 0 mm 10 mps 755 mmHg 68%
    21:00 +9°C° 0 mm 10 mps 755 mmHg 68%
    22:00 +9°C° 0 mm 10 mps 756 mmHg 67%
    23:00 +9°C° 0 mm 10 mps 756 mmHg 67%

    Day after tomorrow, 23 September, Sunday

    Time Temperature Precipitation Wind Pressure Humidity
    00:00 +8°C° 0 mm 10 mps 756 mmHg 68%
    01:00 +8°C° 0 mm 10 mps 756 mmHg 69%
    02:00 +8°C° 0.1 mm 9 mps 756 mmHg 69%
    03:00 +8°C° 0.1 mm 9 mps 756 mmHg 69%
    04:00 +8°C° 0.1 mm 9 mps 757 mmHg 70%
    05:00 +7°C° 0 mm 9 mps 757 mmHg 70%
    06:00 +7°C° 0 mm 8 mps 757 mmHg 70%
    07:00 +7°C° 0 mm 8 mps 757 mmHg 70%
    08:00 +9°C° 0 mm 8 mps 757 mmHg 66%
    09:00 +10°C° 0 mm 9 mps 757 mmHg 62%
    10:00 +11°C° 0 mm 9 mps 757 mmHg 58%
    11:00 +11°C° 0 mm 9 mps 757 mmHg 57%
    12:00 +11°C° 0 mm 9 mps 757 mmHg 57%
    13:00 +11°C° 0 mm 9 mps 757 mmHg 56%
    14:00 +11°C° 0 mm 8 mps 757 mmHg 57%
    15:00 +11°C° 0 mm 8 mps 757 mmHg 58%
    16:00 +11°C° 0 mm 7 mps 756 mmHg 59%
    17:00 +10°C° 0 mm 7 mps 756 mmHg 60%
    18:00 +9°C° 0 mm 6 mps 756 mmHg 62%
    19:00 +9°C° 0 mm 5 mps 756 mmHg 64%
    20:00 +9°C° 0 mm 5 mps 756 mmHg 62%
    21:00 +9°C° 0 mm 5 mps 756 mmHg 61%
    22:00 +9°C° 0 mm 5 mps 756 mmHg 60%
    23:00 +8°C° 0 mm 6 mps 756 mmHg 61%

    24 September, Monday

    Time Temperature Precipitation Wind Pressure Humidity
    00:00 +8°C° 0 mm 6 mps 756 mmHg 62%
    01:00 +8°C° 0 mm 6 mps 756 mmHg 62%
    02:00 +7°C° 0.1 mm 6 mps 757 mmHg 63%
    03:00 +7°C° 0.1 mm 6 mps 757 mmHg 64%
    04:00 +7°C° 0.1 mm 6 mps 758 mmHg 64%
    05:00 +7°C° 0.3 mm 6 mps 759 mmHg 65%
    06:00 +7°C° 0.3 mm 6 mps 760 mmHg 67%
    07:00 +7°C° 0.3 mm 6 mps 761 mmHg 68%
    08:00 +8°C° 0.4 mm 5 mps 762 mmHg 65%
    09:00 +9°C° 0.4 mm 5 mps 763 mmHg 63%
    10:00 +10°C° 0.4 mm 5 mps 764 mmHg 60%
    11:00 +11°C° 0.3 mm 4 mps 764 mmHg 58%
    12:00 +11°C° 0.3 mm 4 mps 765 mmHg 56%
    13:00 +12°C° 0.3 mm 4 mps 766 mmHg 54%
    14:00 +11°C° 0.1 mm 4 mps 767 mmHg 54%
    15:00 +11°C° 0.1 mm 4 mps 767 mmHg 55%
    16:00 +11°C° 0.1 mm 4 mps 768 mmHg 55%
    17:00 +10°C° 0 mm 4 mps 768 mmHg 58%
    18:00 +8°C° 0 mm 4 mps 769 mmHg 62%
    19:00 +7°C° 0 mm 4 mps 770 mmHg 65%
    20:00 +7°C° 0 mm 4 mps 770 mmHg 64%
    21:00 +7°C° 0 mm 5 mps 771 mmHg 62%
    22:00 +7°C° 0 mm 5 mps 772 mmHg 61%
    23:00 +7°C° 0 mm 6 mps 772 mmHg 62%

    25 September, Tuesday

    Time Temperature Precipitation Wind Pressure Humidity
    00:00 +7°C° 0 mm 6 mps 772 mmHg 63%
    01:00 +7°C° 0 mm 6 mps 773 mmHg 64%
    02:00 +7°C° 0 mm 6 mps 773 mmHg 68%
    03:00 +7°C° 0 mm 6 mps 773 mmHg 72%
    04:00 +7°C° 0 mm 6 mps 773 mmHg 76%
    05:00 +6°C° 0 mm 7 mps 773 mmHg 77%
    06:00 +8°C° 0 mm 7 mps 773 mmHg 79%
    07:00 +8°C° 0 mm 7 mps 774 mmHg 80%
    08:00 +10°C° 0 mm 8 mps 774 mmHg 76%
    09:00 +11°C° 0 mm 9 mps 774 mmHg 73%
    10:00 +13°C° 0 mm 10 mps 774 mmHg 70%
    11:00 +13°C° 0 mm 10 mps 774 mmHg 68%
    12:00 +13°C° 0 mm 11 mps 774 mmHg 67%
    13:00 +13°C° 0 mm 11 mps 774 mmHg 65%
    14:00 +13°C° 0 mm 11 mps 774 mmHg 66%
    15:00 +12°C° 0 mm 11 mps 773 mmHg 67%
    16:00 +12°C° 0 mm 11 mps 773 mmHg 67%
    17:00 +11°C° 0 mm 10 mps 773 mmHg 69%
    18:00 +11°C° 0 mm 10 mps 773 mmHg 71%
    19:00 +10°C° 0 mm 9 mps 773 mmHg 73%
    20:00 +10°C° 0 mm 9 mps 773 mmHg 74%
    21:00 +10°C° 0 mm 8 mps 773 mmHg 75%
    22:00 +10°C° 0 mm 8 mps 773 mmHg 76%
    23:00 +10°C° 0 mm 8 mps 773 mmHg 76%

    26 September, Wednesday

    Time Temperature Precipitation Wind Pressure Humidity
    00:00 +10°C° 0 mm 7 mps 773 mmHg 75%
    01:00 +10°C° 0 mm 7 mps 773 mmHg 75%
    02:00 +10°C° 0 mm 7 mps 772 mmHg 77%
    03:00 +10°C° 0 mm 7 mps 772 mmHg 78%
    04:00 +10°C° 0 mm 7 mps 772 mmHg 80%
    05:00 +10°C° 0 mm 7 mps 772 mmHg 80%
    06:00 +10°C° 0 mm 7 mps 771 mmHg 81%
    07:00 +10°C° 0 mm 7 mps 771 mmHg 81%
    08:00 +11°C° 0 mm 7 mps 771 mmHg 77%
    09:00 +12°C° 0 mm 7 mps 771 mmHg 73%
    10:00 +13°C° 0 mm 8 mps 771 mmHg 69%
    11:00 +13°C° 0 mm 8 mps 771 mmHg 68%
    12:00 +13°C° 0 mm 8 mps 771 mmHg 68%
    13:00 +15°C° 0 mm 8 mps 771 mmHg 67%
    14:00 +13°C° 0 mm 9 mps 770 mmHg 69%
    15:00 +13°C° 0 mm 9 mps 770 mmHg 70%
    16:00 +13°C° 0 mm 9 mps 770 mmHg 72%
    17:00 +12°C° 0 mm 9 mps 770 mmHg 75%
    18:00 +12°C° 0 mm 8 mps 770 mmHg 78%
    19:00 +11°C° 0 mm 8 mps 769 mmHg 81%
    20:00 +11°C° 0 mm 8 mps 769 mmHg 81%
    21:00 +11°C° 0 mm 8 mps 769 mmHg 82%
    22:00 +11°C° 0 mm 8 mps 769 mmHg 82%
    23:00 +11°C° 0 mm 8 mps 768 mmHg 82%
    Show more